Date String (YYYY-MM-DD hh:mm:ss) UTC,Instrument flags,absolute air pressure of the measurement (hPa),sample flow rate (lpm),inlet stack bypass flow (lpm),air temperature of the measurement (°C),ambient temperature measured by the external sensor (°C),aerosol sample conditioner tube jacket temperature (°C),OPC LED temperature (°C),internal box temperature (°C),relative humidity of the measurement (%),span deviation,mass concentration of particles derived from Lorenz-Mie calculation of OPC scattering (μg/m³),mass concentration of particles derived from Lorenz-Mie calculation of OPC scattering (μg/m³),mass concentration of particles derived from Lorenz-Mie calculation of OPC scattering (μg/m³)
DateTimeUTC,F1_M11,P_M11,Q1_M11,Q2_M11,T1_M11,T2_M11,T3_M11,T4_M11,T5_M11,U1_M11,ZSPAN_M11,X0_M11,X2_M11,X1_M11
2023-09-12 23:00:00,SystemResetWarning,0831.6,4.99,000.00,028.2,026.8,000.0,036.3,029.9,23.0,0000.2,0008.12,0005.04,0004.73
2023-09-12 23:01:00,SystemResetWarning,0831.6,5.00,000.00,028.1,025.1,000.0,036.3,029.5,23.1,0000.0,0008.24,0005.04,0004.71
2023-09-12 23:02:00,SystemResetWarning,0831.6,5.00,000.00,028.1,024.2,000.0,036.2,029.3,23.8,0000.1,0008.32,0005.01,0004.69
2023-09-12 23:03:00,SystemResetWarning,0831.6,5.01,000.00,028.0,024.4,000.0,036.2,029.3,23.8,0000.1,0009.08,0004.99,0004.68
2023-09-12 23:04:00,SystemResetWarning,0831.6,5.01,000.00,027.9,024.7,000.0,036.2,029.3,24.0,-000.1,0009.39,0004.96,0004.66
2023-09-12 23:05:00,SystemResetWarning,0831.6,4.99,000.00,027.9,025.1,000.0,036.2,029.4,23.8,-000.2,0009.38,0004.94,0004.64
2023-09-12 23:06:00,SystemResetWarning,0831.6,5.00,000.00,027.9,025.6,000.0,036.2,029.5,23.8,0000.0,0009.80,0004.91,0004.62
2023-09-12 23:07:00,SystemResetWarning,0831.6,5.00,000.00,027.9,026.0,000.0,036.2,029.6,23.6,0000.0,0009.68,0004.89,0004.59
2023-09-12 23:08:00,SystemResetWarning,0831.6,5.00,000.00,028.0,026.3,000.0,036.3,029.7,23.8,0000.0,0009.73,0004.89,0004.57
2023-09-12 23:09:00,SystemResetWarning,0831.6,5.00,000.00,028.0,026.7,000.0,036.3,029.7,22.8,0000.0,0009.74,0004.90,0004.57
2023-09-12 23:10:00,SystemResetWarning,0831.6,5.00,000.00,028.1,026.9,000.0,036.3,029.8,22.9,-000.3,0009.76,0004.91,0004.57
2023-09-12 23:11:00,SystemResetWarning,0831.6,5.00,000.00,028.2,027.2,000.0,036.3,029.9,23.3,-000.7,0009.86,0004.91,0004.57
2023-09-12 23:12:00,SystemResetWarning,0831.6,4.99,000.00,028.2,027.1,000.0,036.3,029.9,23.2,-000.7,0010.62,0004.92,0004.59
2023-09-12 23:13:00,SystemResetWarning,0831.6,4.99,000.00,028.2,025.6,000.0,036.3,029.6,23.3,-000.8,0010.42,0004.93,0004.61
2023-09-12 23:14:00,SystemResetWarning,0831.6,5.00,000.00,028.1,024.4,000.0,036.2,029.3,23.0,-000.2,0010.57,0004.96,0004.64
2023-09-12 23:15:00,SystemResetWarning,0831.6,5.01,000.00,028.0,024.3,000.0,036.2,029.3,22.9,0000.0,0009.91,0004.97,0004.67
2023-09-12 23:16:00,SystemResetWarning,0831.6,5.01,000.00,027.9,024.6,000.0,036.2,029.3,22.9,0000.3,0009.90,0004.98,0004.68
2023-09-12 23:17:00,SystemResetWarning,0831.6,5.00,000.00,027.9,025.0,000.0,036.2,029.4,22.2,0000.4,0009.50,0004.98,0004.69
2023-09-12 23:18:00,SystemResetWarning,0831.6,5.00,000.00,027.9,025.5,000.0,036.2,029.5,21.8,0000.6,0010.03,0005.03,0004.72
2023-09-12 23:19:00,SystemResetWarning,0831.6,4.99,000.00,027.9,025.9,000.0,036.2,029.6,21.7,0000.3,0010.27,0005.07,0004.76
2023-09-12 23:20:00,SystemResetWarning,0831.6,4.99,000.00,028.0,026.2,000.0,036.2,029.6,21.6,0000.2,0010.38,0005.12,0004.79
2023-09-12 23:21:00,SystemResetWarning,0831.6,5.00,000.00,028.0,026.6,000.0,036.3,029.7,21.7,0000.8,0010.69,0005.12,0004.82
2023-09-12 23:22:00,SystemResetWarning,0831.6,5.00,000.00,028.1,026.8,000.0,036.3,029.8,22.1,0000.9,0010.68,0005.15,0004.83
2023-09-12 23:23:00,SystemResetWarning,0831.6,5.01,000.00,028.1,027.1,000.0,036.3,029.9,22.5,0001.0,0009.90,0005.17,0004.85
2023-09-12 23:24:00,SystemResetWarning,0831.6,5.01,000.00,028.2,027.3,000.0,036.4,030.0,21.8,0001.2,0009.98,0005.21,0004.87
2023-09-12 23:25:00,SystemResetWarning,0831.6,4.98,000.00,028.2,026.9,000.0,036.4,030.0,22.2,0001.3,0009.37,0005.23,0004.89
2023-09-12 23:26:00,SystemResetWarning,0831.5,4.99,000.00,028.2,025.2,000.0,036.3,029.6,22.1,0001.4,0009.76,0005.26,0004.90
2023-09-12 23:27:00,SystemResetWarning,0831.6,5.00,000.00,028.1,024.2,000.0,036.2,029.4,22.2,0001.4,0009.84,0005.27,0004.93
2023-09-12 23:28:00,SystemResetWarning,0831.5,5.01,000.00,028.0,024.3,000.0,036.2,029.4,22.9,0001.2,0009.93,0005.31,0004.94
2023-09-12 23:29:00,SystemResetWarning,0831.5,5.01,000.00,027.9,024.7,000.0,036.2,029.4,23.1,0001.0,0009.51,0005.30,0004.95
2023-09-12 23:30:00,SystemResetWarning,0831.6,5.00,000.00,027.9,025.1,000.0,036.2,029.4,22.6,0000.9,0009.16,0005.28,0004.94
2023-09-12 23:31:00,SystemResetWarning,0831.6,5.00,000.00,027.9,025.5,000.0,036.2,029.5,22.5,0001.1,0009.46,0005.27,0004.94
2023-09-12 23:32:00,SystemResetWarning,0831.6,5.00,000.00,028.0,026.0,000.0,036.3,029.6,22.5,0000.9,0009.37,0005.27,0004.93
2023-09-12 23:33:00,SystemResetWarning,0831.6,4.99,000.00,028.0,026.3,000.0,036.3,029.7,22.8,0000.7,0009.10,0005.25,0004.93
2023-09-12 23:34:00,SystemResetWarning,0831.6,5.00,000.00,028.1,026.6,000.0,036.3,029.8,22.3,0000.7,0009.05,0005.23,0004.91
2023-09-12 23:35:00,SystemResetWarning,0831.6,5.01,000.00,028.1,026.9,000.0,036.3,029.9,22.1,0000.6,0009.16,0005.23,0004.89
2023-09-12 23:36:00,SystemResetWarning,0831.6,4.99,000.00,028.2,027.1,000.0,036.3,029.9,22.4,-000.0,0009.26,0005.21,0004.88
2023-09-12 23:37:00,SystemResetWarning,0831.6,4.99,000.00,028.2,027.3,000.0,036.4,030.0,22.5,-000.3,0008.85,0005.19,0004.87
2023-09-12 23:38:00,SystemResetWarning,0831.6,4.99,000.00,028.3,026.6,000.0,036.4,030.0,21.9,-000.0,0008.80,0005.19,0004.85
2023-09-12 23:39:00,SystemResetWarning,0831.6,5.00,000.00,028.2,024.9,000.0,036.3,029.6,22.0,-000.2,0009.01,0005.22,0004.84
2023-09-12 23:40:00,SystemResetWarning,0831.5,5.01,000.00,028.1,024.2,000.0,036.2,029.5,22.6,-000.7,0009.62,0005.27,0004.84
2023-09-12 23:41:00,SystemResetWarning,0831.5,5.02,000.00,028.1,024.4,000.0,036.2,029.4,23.3,-000.7,0010.07,0005.29,0004.83
2023-09-12 23:42:00,SystemResetWarning,0831.6,4.99,000.00,028.0,024.7,000.0,036.2,029.4,23.1,-000.5,0010.13,0005.28,0004.81
2023-09-12 23:43:00,SystemResetWarning,0831.5,5.00,000.00,028.0,025.2,000.0,036.2,029.4,22.6,-000.3,0010.22,0005.27,0004.80
2023-09-12 23:44:00,SystemResetWarning,0831.5,5.01,000.00,028.0,025.6,000.0,036.3,029.5,22.6,-000.3,0010.58,0005.31,0004.81
2023-09-12 23:45:00,SystemResetWarning,0831.5,5.00,000.00,028.0,026.0,000.0,036.3,029.6,22.8,-000.3,0010.61,0005.32,0004.81
2023-09-12 23:46:00,SystemResetWarning,0831.5,5.00,000.00,028.0,026.4,000.0,036.3,029.7,23.1,0000.1,0010.40,0005.29,0004.81
2023-09-12 23:47:00,SystemResetWarning,0831.6,5.00,000.00,028.1,026.7,000.0,036.3,029.8,22.7,0000.8,0010.15,0005.27,0004.80
2023-09-12 23:48:00,SystemResetWarning,0831.6,5.00,000.00,028.1,027.0,000.0,036.4,029.9,22.5,0000.8,0010.16,0005.27,0004.79
2023-09-12 23:49:00,SystemResetWarning,0831.5,4.99,000.00,028.2,027.2,000.0,036.4,030.0,22.3,-000.1,0010.16,0005.26,0004.78
2023-09-12 23:50:00,SystemResetWarning,0831.6,5.00,000.00,028.3,027.4,000.0,036.4,030.1,22.2,0000.0,0009.99,0005.22,0004.78
2023-09-12 23:51:00,SystemResetWarning,0831.5,4.99,000.00,028.3,026.4,000.0,036.4,029.9,22.1,0000.8,0009.43,0005.17,0004.77
2023-09-12 23:52:00,SystemResetWarning,0831.5,5.01,000.00,028.2,024.7,000.0,036.3,029.5,22.3,0000.9,0009.09,0005.13,0004.76
2023-09-12 23:53:00,SystemResetWarning,0831.5,5.00,000.00,028.1,024.2,000.0,036.2,029.4,22.9,0000.7,0009.23,0005.10,0004.75
2023-09-12 23:54:00,SystemResetWarning,0831.5,5.02,000.00,028.0,024.4,000.0,036.2,029.3,22.8,0000.9,0009.03,0005.11,0004.74
2023-09-12 23:55:00,SystemResetWarning,0831.5,5.00,000.00,027.9,024.8,000.0,036.3,029.4,22.6,0000.7,0009.21,0005.06,0004.71
2023-09-12 23:56:00,SystemResetWarning,0831.5,4.99,000.00,027.9,025.3,000.0,036.3,029.5,22.7,0000.1,0009.48,0005.02,0004.68
2023-09-12 23:57:00,SystemResetWarning,0831.5,5.01,000.00,028.0,025.7,000.0,036.3,029.6,22.6,0000.1,0009.93,0005.03,0004.66
2023-09-12 23:58:00,SystemResetWarning,0831.5,4.99,000.00,028.0,026.1,000.0,036.3,029.7,22.6,-000.3,0009.90,0005.00,0004.64
2023-09-12 23:59:00,SystemResetWarning,0831.6,4.99,000.00,028.1,026.5,000.0,036.3,029.7,22.8,0000.1,0009.88,0004.99,0004.64
